2018-084J (43679 NORAD) Tracking and Keplerian Element Data

This shows tracking and keplerian element data for the satellite.

Feedback or suggestion? Click here.




ElementValue
Catalog43679
Name2018-084J
Epoch Orbit444
Epoch Day332.06368217
Epoch Year2018
RAAN82.4469
Inclination97.8413
Eccentricity0.0007788
Argument of Perigee259.7083
Mean Anonmoly100.3253
Mean Motion14.91908183
Decay Rate3.88E-06
L11 43679U 18084J 18332.06368217 .00000388 00000-0 44045-4 0 9990
L22 43679 97.8413 82.4469 0007788 259.7083 100.3253 14.91908183 4440

Live tracking and technical data element details for 2018-084J (NORAD 43679). 2018-084J can be tracked NOW for your location showing map with azimuth and elevation plus other details from your city location.

Track the satellite on the map from your city or location and see movement details for azimuth, elevation, latitude, longitude, range, height, and movement on the map or in text.







IsCatalogInMostPopularTable: catalog: 43679, numindb: 67
Update: records affected: 1



GetName: 43679 2018-084J

Hit Count: updated at: Sat, 20 Apr 2019 20:11:12 GMT